Other Surface Observations
Issued by NWS

Home | Current Version | Previous Version | Text Only | Print | Product List | Glossary On
Versions: 1 2 3 4 5 6 7 8 9 10 11 12 13 14 15 16 17 18 19 20 21 22 23 24 25 26 27 28 29 30 31 32 33 34 35 36 37 38 39 40 41 42 43 44 45 46 47 48 49 50
000
SXUS52 KTAE 302118
OSOTAE
OSOTAE
North Florida/South Alabama/Southwest Georgia Weather Roundup
National Weather Service Tallahassee Florida
500 PM EDT SAT MAY 30 2015

Note: "fair" indicates few or no clouds below 12,000 feet with no
significant weather and/or obstructions to visibility.

!FLZ017-115-028-034-025-302200
...North Florida...

CITY           SKY/WX    TMP DP  RH WIND       PRES   REMARKS
TALLAHASSEE    MOSUNNY   92  59  33 VRB3      30.02F HX  91
APALACHICOLA   SUNNY     87  69  54 S13       30.04F HX  91
PERRY          MOSUNNY   90  62  38 E5        30.02F HX  90
CROSS CITY       N/A     91  67  44 SW5       30.01F HX  94
JACKSONVILLE   PTSUNNY   80  71  74 E9        30.07F
$$

!FLZ112-006-005-002-011-302200
...Florida Panhandle...

CITY           SKY/WX    TMP DP  RH WIND       PRES   REMARKS
MARIANNA       MOSUNNY   90  64  42 NE8       30.02F HX  91
BONIFAY        FAIR      89  63  41 E3        30.04F HX  90
PANAMA CITY NW PTSUNNY   85  71  63 SE8       30.04F HX  90
TYNDALL AFB    MOSUNNY   84  72  67 SW10      30.04F HX  90
TYND DRONE APT FAIR      83  73  72 S8        30.04F
DE FUNIAK SPR  FAIR      82  70  67 MISG      30.05F
EGLIN AFB      MOSUNNY   85  72  65 S10       30.04F HX  91
DESTIN         SUNNY     84  73  69 S8        30.04F HX  90
HURLBURT       MOSUNNY   84  72  67 S9        30.04F HX  90
CRESTVIEW      MOSUNNY   85  67  54 S8        30.06F
PENSACOLA      MOSUNNY   84  73  69 SE13      30.04F HX  90
$$

!ALZ063-066-302200
...South Alabama...

CITY           SKY/WX    TMP DP  RH WIND       PRES   REMARKS
DOTHAN         MOSUNNY   85  61  44 S7        30.08F
OZARK CAIRNS   SUNNY     89  63  42 E5        30.04F
FT RUCKER HELI MOSUNNY   88  62  41 E7        30.03F
RUCKER HELI 3  FAIR      89  60  38 SE3       30.06F
RUCKER HELI 2  FAIR      87  61  41 VRB5      30.04F
FLORALA APT    PTSUNNY   79  70  74 S6        30.08S
ANDALUSIA      PTSUNNY   91  66  43 W6        30.05F HX  93
TROY           MOSUNNY   88  63  43 SE7       30.06F
EUFALA         FAIR      91  62  37 CALM      30.04F HX  91
MOBILE         MOSUNNY   84  66  54 S13       30.04F
$$

!GAZ120>161-302200
...Southwest and South Central Georgia...

CITY           SKY/WX    TMP DP  RH WIND       PRES   REMARKS
THOMASVILLE    FAIR      88  64  45 E6        30.06F
BAINBRIDGE     MOSUNNY   95  66  38 NE6       30.05S HX  98
MOODY AFB      PTSUNNY   85  68  55 NE7       30.04S
VALDOSTA       MOSUNNY   90  63  40 VRB5      30.03F HX  91
MOULTRIE       SUNNY     88  63  42 NE5       30.05F
BLAKELY        MOSUNNY   90  59  35 CALM      30.05F
ALBANY         PTSUNNY   89  59  36 VRB5      30.06F
TIFTON         PTSUNNY   89  59  36 E6        30.05F
FITZGERALD     FAIR      90  61  37 SE5       30.08F
CORDELE        FAIR      91  63  40 E3        30.07F HX  92
AMERICUS       FAIR      86  61  42 S3        30.08F
HOMERVILLE     PTSUNNY   90  70  51 E12       30.06F HX  95
$$

!GMZ750-755-770-775-302200
...Coastal and Buoy Obs...

STATION/POSITION TIME  TEMP    WIND        PRES    VSBY  WAVE
                       AIR SEA DIR/SP/G                  HT/PER
                 (UTC) (F)     (DEG/KT/KT) (MB)    (MI)  (FT/S)
KEATON BEACH     2100   81     270/ 11/ 13 1016.8F
CEDAR KEY        2100   83     280/ 10/ 13 1016.6F
C TOWER          2100   79     110/  3/  4 1017.4F
APALACHICOLA BUO 2050   80 82  100/  6/  8 1017.4F         2/ 5
PANAMA CITY BUOY 2050   80 82  130/  8/ 10 1017.5F         3/ 6
MOBILE BUOY      2050   79 84  170/  4/  6 1017.4F         2/ 7
ORANGE BCH AL BU 2050   80 81  120/  6/  8 1016.7F         2/ 5
$$



USA.gov is the U.S. government's official web portal to all federal, state and local government web resources and services.